This is the latest recevied weather packets stored in our database for station/object N5AEH. If no packets are shown the sender has not sent any weather packets the latest 1 day(s).
| Time | Temp. | Humidity | Pressure | Rain* | Wind** | Luminosity | Snow |
|---|---|---|---|---|---|---|---|
| 1778084742 | 13.89° C | 99% | 1010.4 hPa | 0 mm | - | 86 W/m² | - |
| 1778084137 | 14.44° C | 99% | 1010.5 hPa | 1.78 mm | - | 87 W/m² | - |
| 1778080909 | 13.89° C | 98% | 1011.5 hPa | 1.78 mm | - | 74 W/m² | - |
| 1778080608 | 13.89° C | 98% | 1011.4 hPa | 1.78 mm | - | 70 W/m² | - |
| 1778080304 | 13.89° C | 98% | 1011.2 hPa | 0 mm | - | 80 W/m² | - |
| 1778080001 | 14.44° C | 98% | 1011.3 hPa | 0 mm | - | 78 W/m² | - |
| 1778079698 | 13.89° C | 98% | 1011.2 hPa | 0 mm | - | 80 W/m² | - |
| 1778079395 | 13.89° C | 98% | 1011.4 hPa | 0 mm | - | 90 W/m² | - |
| 1778078486 | 13.89° C | 99% | 1011.2 hPa | 0 mm | - | 81 W/m² | - |
| 1778076673 | 13.33° C | 99% | 1011.3 hPa | 0 mm | - | 98 W/m² | - |
| 1778075460 | 13.33° C | 99% | 1011.2 hPa | 0 mm | - | 80 W/m² | - |
| 1778074550 | 13.33° C | 99% | 1011.6 hPa | 0 mm | - | 93 W/m² | - |
| 1778074247 | 13.33° C | 99% | 1011.7 hPa | 0 mm | - | 89 W/m² | - |
| 1778071220 | 12.78° C | 99% | 1011.8 hPa | 0 mm | - | 75 W/m² | - |
| 1778070918 | 12.78° C | 99% | 1011.6 hPa | 0 mm | - | 80 W/m² | - |
| 1778070312 | 12.78° C | 99% | 1011.7 hPa | 0 mm | - | 74 W/m² | - |
| 1778068496 | 13.33° C | 99% | 1012.2 hPa | 0 mm | - | 63 W/m² | - |
| 1778067590 | 12.78° C | 99% | 1012.1 hPa | 0 mm | - | 121 W/m² | - |
| 1778066682 | 12.22° C | 99% | 1011.9 hPa | 0 mm | - | 82 W/m² | - |
| 1778066378 | 11.67° C | 99% | 1012.1 hPa | 0 mm | - | 67 W/m² | - |
| 1778066077 | 11.67° C | 99% | 1012.1 hPa | 0 mm | - | 61 W/m² | - |
| 1778064864 | 11.11° C | 99% | 1012 hPa | 0 mm | - | 18 W/m² | - |
| 1778064259 | 11.11° C | 99% | 1012 hPa | 0 mm | - | 26 W/m² | - |
| 1778061838 | 10.56° C | 99% | 1011.8 hPa | 0 mm | - | 9 W/m² | - |
| 1778061536 | 10.56° C | 99% | 1011.9 hPa | 0 mm | - | 8 W/m² | - |
* Rain latest hour (hover to see other rain measurements)
** Current wind speed in m/s (hover to see current wind gust speed)